(375) Ursula
ephemeris date magn radius delta ra dec elong phase
Today24 Jun 202613.32.911 AU3.189 AU01h29m+17°53'65.1°18.5°
Opposition26 Oct 202612.03.022 AU2.068 AU01h34m+31°13'160.1°6.4°
(375) Ursula - 2026-06-24
astro.vanbuitenen.nl


 
-1 year
-1 month
-1 day
Now
+1 day
+1 month
+1 year

The interactive orbit chart above shows the body's path through the solar system and its position at the given date. Green and blue lines are shown perpendicular to the ecliptic plane: Green if the path is above the ecliptic plane, blue if it is below. (Left-click and drag to rotate the view; Right-click and drag to move the view; Use scroll wheel to zoom in our out.)

The orbital elements of Ursula are:

            e (Eccentricity)                : 0.1022269
            a (Semimajor axis)              : 3.1267529
            i (Inclination)                 : 15.94157
            Ω (Longitude of ascending node) : 336.38254
            ω (Argument of perihelion)      : 341.34465
            M (Mean anomaly)                : 40.50013
            Epoch                           : 2026 Jun 09

            L (Longitude of perihelion)     : 318.39760
            B (Latitude of perihelion)      : -5.04027
            P (Orbital period in years)     : 5.53            
        

The light curve chart below shows the estimated development of the minor planet's magnitude.


The all-sky chart below shows the path of the minor planet over the same period as the light curve. The current position is marked yellow.





The following chart shows the path of the minor planet in the next few days. The field of view is optimized for (~10x50) binoculars and finderscopes.




Ephemerides:
Date       Time       RA (2000)    DEC (2000)    delta   radius  elong  phase   PA    magn
2026-06-24 00:00 UT   01 29 30.5   +17 53 12     3.189    2.911   65.1   18.5   252   13.3 
2026-06-24 21:42 UT   01 30 27.6   +18 02 56     3.179    2.911   65.7   18.5   252   13.3 
2026-06-25 00:00 UT   01 30 33.6   +18 03 58     3.178    2.912   65.7   18.6   252   13.3 
2026-06-26 00:00 UT   01 31 36.2   +18 14 41     3.166    2.912   66.4   18.7   252   13.3 
2026-06-27 00:00 UT   01 32 38.2   +18 25 23     3.155    2.913   67.1   18.7   252   13.3 
2026-06-28 00:00 UT   01 33 39.7   +18 36 03     3.144    2.914   67.7   18.8   252   13.3 
2026-06-29 00:00 UT   01 34 40.7   +18 46 42     3.132    2.915   68.4   18.9   252   13.2 
2026-06-30 00:00 UT   01 35 41.2   +18 57 18     3.121    2.916   69.0   19.0   252   13.2 
2026-07-01 00:00 UT   01 36 41.1   +19 07 53     3.109    2.916   69.7   19.1   252   13.2 
2026-07-02 00:00 UT   01 37 40.4   +19 18 26     3.097    2.917   70.4   19.2   252   13.2 
2026-07-03 00:00 UT   01 38 39.1   +19 28 57     3.086    2.918   71.0   19.2   252   13.2 
2026-07-04 00:00 UT   01 39 37.3   +19 39 27     3.074    2.919   71.7   19.3   251   13.2 
2026-07-05 00:00 UT   01 40 34.9   +19 49 54     3.062    2.920   72.4   19.4   251   13.2 
2026-07-06 00:00 UT   01 41 31.8   +20 00 20     3.050    2.920   73.0   19.4   251   13.2 
2026-07-07 00:00 UT   01 42 28.2   +20 10 43     3.039    2.921   73.7   19.5   251   13.2 
2026-07-08 00:00 UT   01 43 23.9   +20 21 05     3.027    2.922   74.4   19.6   251   13.2 
2026-07-09 00:00 UT   01 44 18.9   +20 31 25     3.015    2.923   75.1   19.6   251   13.2 
2026-07-10 00:00 UT   01 45 13.3   +20 41 43     3.003    2.924   75.8   19.7   251   13.2 
2026-07-11 00:00 UT   01 46 07.0   +20 51 58     2.991    2.924   76.4   19.8   251   13.2 
2026-07-12 00:00 UT   01 46 60.0   +21 02 12     2.979    2.925   77.1   19.8   251   13.2 
2026-07-13 00:00 UT   01 47 52.3   +21 12 24     2.967    2.926   77.8   19.9   251   13.2 
2026-07-14 00:00 UT   01 48 43.8   +21 22 33     2.954    2.927   78.5   19.9   251   13.2 
2026-07-15 00:00 UT   01 49 34.7   +21 32 41     2.942    2.928   79.2   19.9   251   13.2 
2026-07-16 00:00 UT   01 50 24.7   +21 42 46     2.930    2.929   79.9   20.0   251   13.1 
2026-07-17 00:00 UT   01 51 14.1   +21 52 49     2.918    2.929   80.6   20.0   251   13.1 
2026-07-18 00:00 UT   01 52 02.6   +22 02 50     2.906    2.930   81.3   20.1   251   13.1 
2026-07-19 00:00 UT   01 52 50.3   +22 12 48     2.893    2.931   82.0   20.1   251   13.1 
2026-07-20 00:00 UT   01 53 37.2   +22 22 44     2.881    2.932   82.8   20.1   250   13.1 
2026-07-21 00:00 UT   01 54 23.3   +22 32 38     2.869    2.933   83.5   20.1   250   13.1 
2026-07-22 00:00 UT   01 55 08.6   +22 42 30     2.857    2.934   84.2   20.2   250   13.1 
2026-07-23 00:00 UT   01 55 53.0   +22 52 19     2.844    2.934   84.9   20.2   250   13.1 
2026-07-24 00:00 UT   01 56 36.6   +23 02 06     2.832    2.935   85.6   20.2   250   13.1 


    Terminology:
            
    delta:  distance between minor planet and earth in AU
    radius: distance between minor planet and sun in AU
    magn:   magnitude (brightness) estimate    
    ra:     right ascension in hours (24h = 360deg)
    dec:    declination in degrees
    elong:  elongation in degrees (angle sun-earth-minor planet)    
    phase:  phase angle in degrees (angle sun-minor planet-earth)        
    AU:     Astronomical Unit (mean distance between earth and sun: 149597870.7 km
    

Orbital elements provided by the MPC (Minor Planet Center).
Calculations by a modified version of AAPlus, a C# implementation of the AA+ project by PJ Naughter from the algorithms presented in the book "Astronomical Algorithms" by Jean Meeus.
NGC2000 dso catalog and star labels from VizieR as provided by the Strasbourg astronomical Data Center.
Tycho2 catalog from the ESO archive.